Location: *
(40.7190°N, 4.2480°W)
Time: 09:31:32
(UTC+00:00)

Cosmos 1459 Rocket - Pass Details

Date: 18 February 2020
Orbit: 938 x 999 km, 83.0° (Epoch: 27 March)

Event Time Altitude Azimuth Distance (km) Brightness Sun altitude
Rises 05:37:04 0° 353° (N) 3,641 6.9 -17.8°
Reaches altitude 10° 05:39:34 10° 355° (N) 2,699 6.3 -17.4°
Maximum altitude 05:45:46 82° 83° (E) 984 4.1 -16.2°
Drops below altitude 10° 05:52:01 10° 171° (S) 2,724 6.5 -15.0°
Sets 05:54:32 0° 172° (S) 3,676 7.2 -14.5°
